Orbital Elements at Epoch 2459200.5 (2020-Dec-17.0) TDB
Reference: JPL 20 (heliocentric ecliptic J2000)
Element | Value | Uncertainty (1-sigma) | Units |
e | .1074975166760681 | 4.0434e-08 | |
a | 2.29515373326772 | 1.061e-08 | au |
q | 2.048430406551633 | 9.2697e-08 | au |
i | 5.477501344726173 | 4.5812e-06 | deg |
node | 255.933224133687 | 5.5646e-05 | deg |
peri | 3.898048480358685 | 6.1171e-05 | deg |
M | 192.1992036248388 | 2.54e-05 | deg |
tp | 2459792.480791018763 (2022-Jul-31.98079102) | 9.0278e-05 | TDB |
period | 1270.036193930131 3.48 | 8.8065e-06 2.411e-08 | d yr |
n | .2834564886579957 | 1.9655e-09 | deg/d |
Q | 2.541877059983807 | 1.175e-08 | au |
|
| | Orbit Determination Parameters
Additional Information
|